• Em Portugal
  • Lista de países
  • Para 7 dias
  • Temperatura da água
  • Mapas de satélite
  • Mapa do tempo
  • Widgets de tempo
  • user-avatar
    Iniciar Sessão

    Previsão horária em Igly

    Hoje, 18 Outubro, Quinta-feira

    Tempo Temperatura Precipitação Vento Pressão Humidade
    00:00 +13°C° 0 mm 2 m/s 763 mmHg 60%
    01:00 +13°C° 0 mm 2 m/s 763 mmHg 61%
    02:00 +13°C° 0 mm 2 m/s 763 mmHg 62%
    03:00 +13°C° 0 mm 2 m/s 763 mmHg 63%
    04:00 +12°C° 0 mm 2 m/s 763 mmHg 64%
    05:00 +12°C° 0 mm 2 m/s 762 mmHg 65%
    06:00 +12°C° 0 mm 2 m/s 762 mmHg 66%
    07:00 +12°C° 0 mm 2 m/s 762 mmHg 66%
    08:00 +14°C° 0 mm 2 m/s 762 mmHg 61%
    09:00 +16°C° 0 mm 2 m/s 762 mmHg 55%
    10:00 +18°C° 0 mm 2 m/s 762 mmHg 50%
    11:00 +19°C° 0 mm 2 m/s 762 mmHg 48%
    12:00 +20°C° 0 mm 2 m/s 762 mmHg 46%
    13:00 +22°C° 0 mm 1 m/s 762 mmHg 44%
    14:00 +21°C° 0 mm 1 m/s 762 mmHg 48%
    15:00 +20°C° 0 mm 1 m/s 761 mmHg 52%
    16:00 +19°C° 0 mm 1 m/s 761 mmHg 55%
    17:00 +18°C° 0 mm 1 m/s 762 mmHg 60%
    18:00 +16°C° 0 mm 2 m/s 762 mmHg 64%
    19:00 +15°C° 0 mm 2 m/s 762 mmHg 69%
    20:00 +14°C° 0 mm 2 m/s 762 mmHg 73%
    21:00 +14°C° 0 mm 2 m/s 762 mmHg 77%
    22:00 +13°C° 0 mm 2 m/s 763 mmHg 80%
    23:00 +13°C° 0 mm 2 m/s 763 mmHg 84%

    Amanhã, 19 Outubro, Sexta-feira

    Tempo Temperatura Precipitação Vento Pressão Humidade
    00:00 +12°C° 0 mm 2 m/s 763 mmHg 88%
    01:00 +12°C° 0 mm 2 m/s 763 mmHg 92%
    02:00 +12°C° 0 mm 2 m/s 763 mmHg 93%
    03:00 +12°C° 0 mm 2 m/s 763 mmHg 94%
    04:00 +12°C° 0 mm 2 m/s 763 mmHg 96%
    05:00 +12°C° 0 mm 2 m/s 764 mmHg 95%
    06:00 +11°C° 0 mm 3 m/s 764 mmHg 93%
    07:00 +11°C° 0 mm 3 m/s 764 mmHg 92%
    08:00 +12°C° 0 mm 3 m/s 765 mmHg 83%
    09:00 +13°C° 0 mm 3 m/s 765 mmHg 73%
    10:00 +14°C° 0 mm 3 m/s 765 mmHg 64%
    11:00 +16°C° 0 mm 3 m/s 765 mmHg 59%
    12:00 +16°C° 0 mm 3 m/s 765 mmHg 55%
    13:00 +16°C° 0 mm 3 m/s 765 mmHg 50%
    14:00 +14°C° 0 mm 3 m/s 765 mmHg 54%
    15:00 +14°C° 0 mm 3 m/s 766 mmHg 58%
    16:00 +14°C° 0 mm 2 m/s 766 mmHg 62%
    17:00 +13°C° 0 mm 2 m/s 766 mmHg 68%
    18:00 +10°C° 0 mm 2 m/s 766 mmHg 74%
    19:00 +10°C° 0 mm 1 m/s 766 mmHg 80%
    20:00 +10°C° 0 mm 1 m/s 767 mmHg 82%
    21:00 +9°C° 0 mm 1 m/s 767 mmHg 84%
    22:00 +8°C° 0 mm 0 m/s 767 mmHg 86%
    23:00 +9°C° 0 mm 1 m/s 767 mmHg 86%

    Depois de amanhã, 20 Outubro, Sábado

    Tempo Temperatura Precipitação Vento Pressão Humidade
    00:00 +9°C° 0 mm 1 m/s 767 mmHg 86%
    01:00 +8°C° 0 mm 1 m/s 767 mmHg 86%
    02:00 +8°C° 0 mm 1 m/s 767 mmHg 86%
    03:00 +7°C° 0 mm 2 m/s 767 mmHg 87%
    04:00 +7°C° 0 mm 2 m/s 767 mmHg 88%
    05:00 +7°C° 0 mm 2 m/s 768 mmHg 89%
    06:00 +7°C° 0 mm 2 m/s 768 mmHg 89%
    07:00 +7°C° 0 mm 2 m/s 768 mmHg 90%
    08:00 +9°C° 0 mm 3 m/s 768 mmHg 84%
    09:00 +10°C° 0 mm 3 m/s 768 mmHg 77%
    10:00 +12°C° 0 mm 3 m/s 769 mmHg 70%
    11:00 +12°C° 0 mm 4 m/s 769 mmHg 69%
    12:00 +12°C° 0 mm 4 m/s 769 mmHg 67%
    13:00 +13°C° 0 mm 4 m/s 769 mmHg 65%
    14:00 +12°C° 0 mm 4 m/s 769 mmHg 66%
    15:00 +12°C° 0 mm 4 m/s 769 mmHg 66%
    16:00 +12°C° 0 mm 4 m/s 769 mmHg 66%
    17:00 +11°C° 0 mm 4 m/s 769 mmHg 69%
    18:00 +10°C° 0 mm 4 m/s 769 mmHg 72%
    19:00 +10°C° 0 mm 4 m/s 769 mmHg 76%
    20:00 +10°C° 0 mm 4 m/s 769 mmHg 77%
    21:00 +10°C° 0 mm 4 m/s 769 mmHg 78%
    22:00 +10°C° 0 mm 4 m/s 769 mmHg 79%
    23:00 +10°C° 0 mm 4 m/s 769 mmHg 81%

    21 Outubro, Domingo

    Tempo Temperatura Precipitação Vento Pressão Humidade
    00:00 +10°C° 0 mm 4 m/s 769 mmHg 83%
    01:00 +10°C° 0 mm 3 m/s 769 mmHg 85%
    02:00 +9°C° 0 mm 3 m/s 769 mmHg 87%
    03:00 +9°C° 0 mm 3 m/s 769 mmHg 90%
    04:00 +8°C° 0 mm 3 m/s 769 mmHg 92%
    05:00 +8°C° 0 mm 2 m/s 769 mmHg 93%
    06:00 +8°C° 0 mm 2 m/s 769 mmHg 94%
    07:00 +8°C° 0 mm 2 m/s 769 mmHg 94%
    08:00 +9°C° 0 mm 2 m/s 769 mmHg 87%
    09:00 +12°C° 0 mm 2 m/s 769 mmHg 80%
    10:00 +13°C° 0 mm 3 m/s 769 mmHg 73%
    11:00 +13°C° 0 mm 3 m/s 769 mmHg 70%
    12:00 +14°C° 0 mm 3 m/s 769 mmHg 67%
    13:00 +14°C° 0 mm 3 m/s 769 mmHg 65%
    14:00 +15°C° 0 mm 2 m/s 769 mmHg 68%
    15:00 +14°C° 0 mm 2 m/s 768 mmHg 72%
    16:00 +14°C° 0 mm 2 m/s 768 mmHg 76%
    17:00 +13°C° 0 mm 2 m/s 768 mmHg 80%
    18:00 +12°C° 0 mm 2 m/s 768 mmHg 85%
    19:00 +10°C° 0 mm 2 m/s 768 mmHg 90%
    20:00 +10°C° 0 mm 3 m/s 767 mmHg 90%
    21:00 +10°C° 0 mm 3 m/s 767 mmHg 91%
    22:00 +9°C° 0 mm 3 m/s 767 mmHg 92%
    23:00 +9°C° 0 mm 3 m/s 767 mmHg 91%

    22 Outubro, Segunda-feira

    Tempo Temperatura Precipitação Vento Pressão Humidade
    00:00 +9°C° 0 mm 3 m/s 767 mmHg 89%
    01:00 +10°C° 0 mm 4 m/s 766 mmHg 88%
    02:00 +10°C° 0 mm 4 m/s 766 mmHg 85%
    03:00 +10°C° 0 mm 4 m/s 766 mmHg 82%
    04:00 +9°C° 0 mm 5 m/s 765 mmHg 78%
    05:00 +9°C° 0 mm 5 m/s 765 mmHg 76%
    06:00 +9°C° 0 mm 5 m/s 765 mmHg 73%
    07:00 +9°C° 0 mm 5 m/s 765 mmHg 70%
    08:00 +9°C° 0.2 mm 5 m/s 765 mmHg 72%
    09:00 +9°C° 0.2 mm 5 m/s 765 mmHg 74%
    10:00 +9°C° 0.2 mm 5 m/s 765 mmHg 76%
    11:00 +10°C° 0.1 mm 5 m/s 765 mmHg 71%
    12:00 +12°C° 0.1 mm 5 m/s 765 mmHg 66%
    13:00 +13°C° 0.1 mm 5 m/s 765 mmHg 61%
    14:00 +13°C° 0 mm 5 m/s 765 mmHg 63%
    15:00 +12°C° 0 mm 5 m/s 765 mmHg 65%
    16:00 +11°C° 0 mm 4 m/s 766 mmHg 67%
    17:00 +11°C° 0 mm 4 m/s 766 mmHg 68%
    18:00 +10°C° 0 mm 4 m/s 766 mmHg 70%
    19:00 +8°C° 0 mm 4 m/s 766 mmHg 71%
    20:00 +7°C° 0 mm 4 m/s 765 mmHg 74%
    21:00 +7°C° 0 mm 4 m/s 765 mmHg 76%
    22:00 +6°C° 0 mm 4 m/s 765 mmHg 78%
    23:00 +6°C° 0 mm 4 m/s 764 mmHg 80%

    23 Outubro, Terça-feira

    Tempo Temperatura Precipitação Vento Pressão Humidade
    00:00 +6°C° 0 mm 4 m/s 764 mmHg 82%
    01:00 +5°C° 0 mm 4 m/s 763 mmHg 83%
    02:00 +5°C° 0 mm 4 m/s 762 mmHg 82%
    03:00 +6°C° 0 mm 4 m/s 761 mmHg 82%
    04:00 +6°C° 0 mm 5 m/s 761 mmHg 81%
    05:00 +6°C° 0.1 mm 5 m/s 760 mmHg 80%
    06:00 +6°C° 0.1 mm 5 m/s 759 mmHg 79%
    07:00 +5°C° 0.1 mm 6 m/s 758 mmHg 79%
    08:00 +5°C° 0.1 mm 6 m/s 757 mmHg 76%
    09:00 +6°C° 0.1 mm 7 m/s 756 mmHg 73%
    10:00 +7°C° 0.1 mm 8 m/s 756 mmHg 70%
    11:00 +8°C° 0.1 mm 7 m/s 755 mmHg 72%
    12:00 +8°C° 0.1 mm 7 m/s 755 mmHg 73%
    13:00 +8°C° 0.1 mm 6 m/s 755 mmHg 75%
    14:00 +8°C° 0.1 mm 6 m/s 755 mmHg 73%
    15:00 +8°C° 0.1 mm 5 m/s 755 mmHg 72%
    16:00 +7°C° 0.1 mm 5 m/s 755 mmHg 71%
    17:00 +7°C° 0.1 mm 5 m/s 755 mmHg 71%
    18:00 +6°C° 0.1 mm 5 m/s 755 mmHg 72%
    19:00 +6°C° 0.1 mm 5 m/s 755 mmHg 73%
    20:00 +5°C° 0.1 mm 4 m/s 756 mmHg 74%
    21:00 +5°C° 0.1 mm 4 m/s 756 mmHg 75%
    22:00 +4°C° 0.1 mm 4 m/s 756 mmHg 76%
    23:00 +4°C° 0.1 mm 4 m/s 757 mmHg 78%
    Mostrar mais